Location: Frigodiniz
(19.9514°S, 44.0226°W)
Time: 00:30:56
(UTC+00:00)

Daily predictions for brighter satellites

Satellite Brightness Start Highest point End
(mag) Time Altitude Azimuth Time Altitude Azimuth Time Altitude Azimuth
CZ-3 R/B 3.8 05:54:31 10° WNW 06:39:59 77° NNE 06:49:49 10° ESE
Milstar 3 Cent rocket 3.6 06:47:54 68° WSW 06:49:51 87° NNW 06:57:25 10° ENE
Cosmos 676 Rocket 4.5 07:00:32 10° N 07:05:45 59° ENE 07:11:01 10° SSE
ASC 2 Rocket 4.1 07:10:26 63° S 07:10:36 63° S 07:19:02 10° E
ATLAS 3B R/B 3.1 07:13:25 43° NNW 07:13:25 43° NNW 07:18:06 10° N
Cosmos 2034 Rocket 4.0 07:07:03 10° N 07:13:17 80° E 07:19:30 10° S
Cosmos 2333 Rocket 4.4 07:20:11 12° NNW 07:20:11 12° NNW 07:20:36 10° NNW
ADEOS 3.6 07:12:42 10° NNE 07:17:55 78° ESE 07:18:32 67° SSE
Envisat 4.2 07:22:25 10° NE 07:27:10 41° ESE 07:31:57 10° S
Cosmos 2237 Rocket 2.5 07:26:51 27° S 07:30:01 66° ESE 07:35:39 10° NNE
Delta 7925 Rocket 3.5 07:31:40 59° SSW 07:32:21 66° SSE 07:37:13 10° E
Cosmos 1954 Rocket 3.9 07:32:08 66° W 07:32:27 68° WSW 07:37:45 10° S
GPS 2-18 Rocket1 3.4 07:38:04 61° NNE 07:38:04 61° NNE 07:41:39 10° E
Cosmos 1892 2.7 07:40:30 71° N 07:40:30 71° N 07:43:52 10° N
YAOGAN 6 2.7 07:47:39 10° NNE 07:51:14 71° ESE 07:53:25 22° S
SL-24 R/B 3.6 07:51:11 10° S 07:55:07 62° WSW 07:58:45 10° NNW
Ariane H10+ 4.0 07:49:57 14° WNW 07:56:14 24° NNW 08:00:05 10° NE
Cosmos 1850 Rocket 4.4 07:51:14 10° N 07:56:28 65° ENE 08:01:42 10° SSE
NOSS 0 Rocket 4.3 07:56:15 31° WSW 07:58:23 41° WNW 08:04:04 10° N
H-2A R/B 2.7 07:55:01 10° N 07:58:47 59° W 08:00:17 33° SW
Meteor PRIRODA 3.5 07:55:34 10° N 07:59:14 87° W 08:02:04 17° SSW
Meteor 2-1 Rocket 4.2 07:56:43 10° NNW 08:02:07 57° W 08:07:33 10° S
Cosmos 1825 Rocket 4.5 08:03:10 28° WNW 08:03:10 28° WNW 08:06:08 10° NNW
Cosmos 1953 Rocket 3.7 07:59:53 21° SSW 08:02:39 52° W 08:06:56 10° N
CZ-4B R/B 2.9 07:58:53 10° N 08:02:57 74° WNW 08:07:19 10° SSW
Fermi 3.9 08:02:10 38° SW 08:03:33 64° SSE 08:07:38 10° E
USA 215 3.6 07:58:37 10° SSE 08:04:44 42° SW 08:10:05 14° WNW
deb Chang Zheng 4 4.0 08:00:37 10° NNE 08:04:46 62° ESE 08:08:59 10° S
Cosmos 1741 Rocket 4.1 08:01:40 10° N 08:06:54 80° ENE 08:12:13 10° SSE
IRAS Rocket 4.1 08:02:24 10° S 08:07:54 68° WSW 08:13:24 10° NNW
Cosmos 2058 3.2 08:03:41 10° S 08:07:56 70° E 08:12:06 10° N
Helios 1B 4.5 08:07:30 10° S 08:11:53 83° WSW 08:16:12 10° NNW
Nadezhda 4 Rocket 4.1 08:06:47 10° SSW 08:12:59 58° W 08:19:11 10° N
Delta 198 3.3 08:10:31 22° WNW 08:13:18 81° NNE 08:17:12 10° ESE
SJ-7 4.2 08:09:22 10° N 08:13:21 79° WNW 08:17:22 10° SSW
Cosmos 1092 Rocket 4.2 08:07:40 10° S 08:14:05 77° E 08:20:24 10° N
Okean O Rocket 4.4 08:11:29 10° ENE 08:14:06 16° ESE 08:16:42 10° SE
ATLAS 3B CENTAUR R/B 1.5 08:11:48 23° WSW 08:15:11 75° NNW 08:18:22 10° ENE
Lacrosse 5 rocket 2.8 08:11:45 10° S 08:15:14 30° SE 08:18:31 10° ENE
Cosmos 1825 2.0 08:12:14 10° S 08:16:00 68° W 08:19:44 10° N
H-2A R/B 4.1 08:12:24 10° SE 08:16:14 31° E 08:20:04 10° NNE
Cosmos 1408 3.5 08:18:04 25° WSW 08:18:48 27° W 08:21:53 10° NNW
Cosmos 405 Rocket 2.7 08:18:11 10° S 08:22:15 81° W 08:26:18 10° N
Cosmos 2026 Rocket 4.3 08:17:34 10° S 08:23:45 71° E 08:29:47 10° N
Cosmos 2263 Rocket 2.3 08:18:20 10° NNW 08:23:53 55° WSW 08:29:28 10° S
Ariane H10 4.3 08:26:53 10° NNW 08:29:10 16° NNE 08:33:07 10° ENE
Cosmos 1356 3.7 08:26:18 10° SSW 08:29:35 44° W 08:32:51 10° NNW
Aureole 3 2.7 08:26:46 10° NNW 08:29:44 59° W 08:33:03 10° S
CZ-4C R/B 3.1 08:33:33 10° S 08:36:54 48° WSW 08:40:08 10° NNW
Stardust Del rocket 3.4 08:34:19 14° W 08:37:03 77° S 08:43:04 10° E
CZ-4B R/B 4.4 08:33:33 10° NE 08:38:52 46° ESE 08:44:10 10° S
GPS 2-04 Rocket1 3.8 08:38:31 13° WSW 08:40:34 21° SSW 08:43:14 10° SSE
Landsat 5 3.9 08:36:25 10° S 08:40:47 48° WSW 08:45:07 10° NNW
PAYLOAD B 4.5 08:35:56 10° NNE 08:41:31 77° ESE 08:47:09 10° S
Delta 2 Rocket 4.4 08:36:29 12° WSW 08:42:16 47° S 08:48:04 10° ESE
GPS 2-17 Rocket1 3.1 08:38:14 10° WNW 08:42:51 76° N 08:47:20 10° E
SL-16 R/B 2.2 08:37:35 10° SSW 08:43:19 83° WNW 08:48:59 10° NNE
Cosmos-2242 3.0 08:40:26 10° N 08:44:47 80° W 08:49:13 10° S
SMAP 3.1 08:41:24 10° N 08:46:03 83° WNW 08:50:46 10° SSW
H-2A R/B 2.2 08:45:45 10° SW 08:46:36 11° SSW 08:47:18 10° S
NOAA 11 4.2 08:43:55 10° N 08:49:19 69° WNW 08:54:46 10° SSW
AQUARIUS 4.2 08:47:19 10° N 08:51:49 83° W 08:56:22 10° SSW
ASTRO E2 4.3 08:51:53 10° SW 08:55:12 25° SSE 08:58:30 10° ESE
